This is the latest recevied weather packets stored in our database for station/object KE4LOJ. If no packets are shown the sender has not sent any weather packets the latest 10 day(s).
| Time | Temp. | Humidity | Pressure | Rain* | Wind** | Luminosity | Snow |
|---|---|---|---|---|---|---|---|
| 1777993050 | 26.67° C | 58% | 1017.3 hPa | 0 mm | - | 637 W/m² | - |
| 1777992748 | 26.11° C | 59% | 1017.4 hPa | 0 mm | - | 638 W/m² | - |
| 1777992445 | 26.11° C | 60% | 1017.2 hPa | 0 mm | - | 640 W/m² | - |
| 1777992144 | 26.11° C | 61% | 1017.2 hPa | 0 mm | - | 638 W/m² | - |
| 1777991841 | 25.56° C | 60% | 1017.4 hPa | 0 mm | - | 623 W/m² | - |
| 1777991538 | 26.11° C | 60% | 1017.2 hPa | 0 mm | - | 599 W/m² | - |
| 1777991235 | 25.56° C | 64% | 1017 hPa | 0 mm | - | 584 W/m² | - |
| 1777990932 | 25° C | 64% | 1017.1 hPa | 0 mm | - | 342 W/m² | - |
| 1777990630 | 25° C | 67% | 1017.1 hPa | 0 mm | - | 420 W/m² | - |
| 1777990326 | 25° C | 68% | 1017 hPa | 0 mm | - | 267 W/m² | - |
| 1777990022 | 25° C | 69% | 1017.1 hPa | 0 mm | - | 265 W/m² | - |
| 1777989720 | 25° C | 69% | 1017.1 hPa | 0 mm | - | 230 W/m² | - |
| 1777989416 | 25° C | 71% | 1017 hPa | 0 mm | - | 143 W/m² | - |
| 1777989112 | 25° C | 71% | 1017.2 hPa | 0 mm | - | 100 W/m² | - |
| 1777988808 | 24.44° C | 71% | 1017.2 hPa | 0 mm | - | 100 W/m² | - |
| 1777988506 | 24.44° C | 72% | 1017.3 hPa | 0 mm | - | 113 W/m² | - |
| 1777988203 | 23.89° C | 73% | 1017.5 hPa | 0 mm | - | 92 W/m² | - |
| 1777987899 | 23.89° C | 73% | 1017.3 hPa | 0 mm | - | 73 W/m² | - |
| 1777987595 | 23.89° C | 74% | 1017.2 hPa | 0 mm | - | 74 W/m² | - |
| 1777987293 | 23.89° C | 74% | 1017.3 hPa | 0 mm | - | 62 W/m² | - |
| 1777986989 | 23.33° C | 75% | 1017.3 hPa | 0 mm | - | 65 W/m² | - |
| 1777986687 | 23.33° C | 75% | 1017.4 hPa | 0 mm | - | 70 W/m² | - |
| 1777986385 | 23.89° C | 75% | 1017.1 hPa | 0 mm | - | 95 W/m² | - |
| 1777986084 | 23.33° C | 76% | 1017.1 hPa | 0 mm | - | 153 W/m² | - |
| 1777985779 | 23.33° C | 76% | 1017 hPa | 0 mm | - | 54 W/m² | - |
* Rain latest hour (hover to see other rain measurements)
** Current wind speed in m/s (hover to see current wind gust speed)